"Pseudo-MPEC" for C0FMMV5

Created 2023 Jan 26 17:22:05 UT using Find_Orb

Click here for an explanation of pseudo-MPECs

 
 Astrometry: 
     C0FMMV5* C2023 01 25@[0pbJK1u,eLpjwvTYKH3L2=1.Ici\M9xw?/9[^y0oEblyAqH.C4V00
     C0FMMV5  C2023 01 25K.BN.`rD31B1P,$fD$@Use=??86g3UKAQT*7L(K7KAstrometry6V00
     C0FMMV5  C2023 01 25h1:.UrNdFn[e3sTM5cS1:-;R3CWJHml3aTredacted;iZ)SQiEGLV00
     C0FMMV5  C2023 01 25j75COP=[c:lg=9ZP!4s5q'op:@2F-[E/eOltmZ7,nBa\;P.BEd8:V00
     C0FMMV5 KC2023 01 25.46927 08 55 10.12 +36 41 46.8    ~1PCM 20.1 RoNEOCP291
     C0FMMV5 KC2023 01 25.47278 08 55 19.72 +36 40 43.5    ~1PCM 20.5 RoNEOCP291
     C0FMMV5 KC2023 01 25.47639 08 55 29.66 +36 39 37.8    ~1PCM 20.1 RoNEOCP291
     C0FMMV5 AC2023 01 25_K0+M=gM,`,oZy)L`QnG3/xu,w`DkEI!PQrq$x#8dOs=2E#cm%QVL01
     C0FMMV5 KC2023 01 25WLb.2-W0!baNYeL7Fe!O8b7v%*!V`2)I@;0@M@vi(JHGPclick9mL01
     C0FMMV5 KC2023 01 25o:where-3_D/d(0ACv$lsV]FP352]8ZgQ']F$DY=Ch(KR#nN':jTL01
     C0FMMV5 KC2023 01 25J'!!:forj3Q\G?4OZSF9qi[So30cakX+E(g)'kqYMR;GTO!TBLx#L01
     C0FMMV5 KC2023 01 25YmjC0+4h7YK$Z._%%r,xJEXQgNeQ_2B(B'pe*6vD\w$.)3_Gkk2?L01
     C0FMMV5 KC2023 01 25(wJB/F$,Nuql%-CC+Y@/g#e=3F.5XMq0w9sD%Lmvrr];oCtiRFpcL01
     C0FMMV5 KC2023 01 25+qtOxk_P_XNW8Jhrv4kIb4UXZMODXEo,explanationNnRgD7Ln8L01
     C0FMMV5  C2023 01 26LrDn`2_/OMe--86+K\UW0#/R!RMHjy@Jw410M@9_FbR]G#s4]%x5654
     C0FMMV5  C2023 01 26xgS!1,A\*0Gn]A-8'S3jG6cJJ!)H60!$=5JwK.-rEnc]up7.a^x$654
     C0FMMV5  C2023 01 26b%F%p0tM\cQ3i_u;;@/XW*OHlj`DHIG(ILxY,L`B58UXQPtGJ)%'654
     C0FMMV5  C2023 01 26h.)4xjY!mZ),'ulS[4BMiU%tODX+:/5lyHGl(P.h1]4?HaFkpKeE654
     C0FMMV5  C2023 01 26Q0W76X+EGQyoykQOTsa7-%0U@WF6\254vm%2%01La0u`Vj0y+G,d654
     C0FMMV5  C2023 01 262;+iauKMe9#Xi7(!cDe8^uN+=Y-ID?)bYXg-C'dUyTl\U/tGdpe9654

Station data:
(291) LPL/Spacewatch II  (N31.961669 W111.599905)  US/Arizona.  Observers J.
   V. Scotti, R. S. McMillan. 1.8-m f/2.7 reflector + CCD.
(654) Table Mountain Observatory, Wrightwood-PHMC  (N34.381820 W117.681590)
   US/California.  Observers P. Choi, N. Saini, C. Zhai, R. Trahan, M. Shao.
(L01) Višnjan Observatory, Tičan  (N45.290897 E13.749300)  Croatia.
   Observers K. Korlević, D. Pujagic, V. Dobos. Measurers D. Pujagic, K.
   Korlević. 1.0-m f/2.9 reflector + CCD.
(V00) Kitt Peak-Bok  (N31.963125 W111.600190)  US/Arizona.  Observers T. A.
   Pruyne, B. M. Africano, E. J. Christensen, G. A. Farneth, D. C. Fuls, A.
   R. Gibbs, A. D. Grauer, H. Gröller, J. A. Johnson, R. A. Kowalski, S. M.
   Larson, G. J. Leonard, D. Rankin, R. L. Seaman, F. C. Shelly, K. W.
   Wierzchoś. 2.25-m reflector + CCD.

Orbital elements:  C0FMMV5
   Perihelion 2023 Mar 4.11725 +/- 0.00776 TT =  2:48:50 (JD 2460007.61725)
Epoch 2023 Jan 26.0 TT = JDT 2459970.5   Earth MOID: 0.0005   Ma: 0.0274
M 340.80213229 +/- 0.023            (J2000 ecliptic)             AutoNEOCP
n   0.51722222 +/- 0.000516         Peri.  226.46361 +/- 0.0018
a   1.53703796 +/- 0.00102          Node   306.90715 +/- 0.00031
e   0.4171244 +/- 0.000428          Incl.    5.51605 +/- 0.0043
P   1.91/696.01d           H 29.68  G  0.15   U  7.7
q 0.89590179 +/- 6.25e-5    Q 2.17817413 +/- 0.00211
From 20 observations 2023 Jan. 25-26 (24.6 hr); mean residual 0".42
Residuals in arcseconds: 
230125 V00  .26-  .09-    230125 L01  .19+  .31-    230126 654  .01+  .10+    
230125 V00  .00   .01-    230125 L01  .24+  .64+    230126 654  .19+  .06+    
230125 V00  1.8-  .50+    230125 L01  .39-  .66+    230126 654  .01-  .05+    
230125 V00  .52+  .42-    230125 L01  .13+  .21-    230126 654  .21-  .14-    
230125 291  .39+  .17-    230125 L01  .03-  .14+    230126 654  .02+  .23-    
230125 291  .37+  .22-    230125 L01  .15+  .56+    230126 654  .02-  .51-    
230125 291  .54+  .45-    230125 L01  .08+  .38+    

Ephemerides (geocentric):
Date (UTC) HH   RA             Dec           delta  r     elong  mag " sig PA
---- --------  ------------   ------------  ------ ------ -----  --- --------
2023 01 26 17  10 55 15.953   +20 18 12.91  735422 .98873 146.8 19.5 3.20 127
2023 01 26 18  11 02 30.593   +18 55 18.52  714586 .98854 145.0 19.5 4.04 128
2023 01 26 19  11 10 02.816   +17 26 25.92  694850 .98834 143.1 19.5 5.00 129
2023 01 26 20  11 17 52.685   +15 51 23.34  676314 .98815 141.0 19.5 6.10 129
2023 01 26 21  11 26 00.109   +14 10 03.71  659076 .98795 138.8 19.5 7.34 130
2023 01 26 22  11 34 24.814   +12 22 26.12  643243 .98776 136.4 19.5 8.72 131
2023 01 26 23  11 43 06.324   +10 28 37.28  628920 .98757 133.9 19.6 10.2 131
2023 01 27 00  11 52 03.940   +08 28 52.94  616212 .98737 131.3 19.6 11.9 132
2023 01 27 01  12 01 16.728   +06 23 39.03  605223 .98718 128.5 19.6 13.7 132
2023 01 27 02  12 10 43.506   +04 13 32.38  596046 .98698 125.6 19.7 15.6 132
2023 01 27 03  12 20 22.845   +01 59 20.82  588768 .98679 122.6 19.7 17.5 133
2023 01 27 04  12 30 13.080   -00 17 57.56  583458 .98659 119.5 19.8 19.5 133
2023 01 27 05  12 40 12.321   -02 37 15.98  580171 .98640 116.4 19.9 21.5 133
2023 01 27 06  12 50 18.491   -04 57 21.40  578941 .98621 113.2 20.0 23.4 133
2023 01 27 07  13 00 29.353   -07 16 57.62  579782 .98601 110.0 20.1 25.2 132
2023 01 27 08  13 10 42.568   -09 34 48.73  582684 .98582 106.8 20.2 27.0 132
2023 01 27 09  13 20 55.737   -11 49 42.58  587617 .98563 103.7 20.3 28.6 132
2023 01 27 10  13 31 06.466   -14 00 33.89  594530 .98543 100.6 20.5 30.0 131
2023 01 27 11  13 41 12.414   -16 06 26.71  603354 .98524  97.6 20.6 31.2 130
2023 01 27 12  13 51 11.349   -18 06 35.95  614008 .98505  94.7 20.7 32.2 130
2023 01 27 13  14 01 01.196   -20 00 28.10  626397 .98485  91.9 20.9 33.1 129
2023 01 27 14  14 10 40.070   -21 47 41.08  640420 .98466  89.2 21.1 33.7 128
2023 01 27 15  14 20 06.311   -23 28 03.43  655972 .98447  86.6 21.2 34.2 127
2023 01 27 16  14 29 18.497   -25 01 33.01  672947 .98428  84.2 21.4 34.5 126
2023 01 27 17  14 38 15.452   -26 28 15.47  691240 .98408  81.9 21.5 34.7 125
2023 01 27 18  14 46 56.249   -27 48 22.69  710749 .98389  79.7 21.7 34.8 124
2023 01 27 19  14 55 20.198   -29 02 11.15  731376 .98370  77.6 21.9 34.7 123
2023 01 27 20  15 03 26.829   -30 10 00.57  753029 .98351  75.7 22.0 34.6 122
2023 01 27 21  15 11 15.879   -31 12 12.72  775622 .98332  73.9 22.2 34.4 121
2023 01 27 22  15 18 47.260   -32 09 10.37  799075 .98313  72.2 22.4 34.2 120
2023 01 27 23  15 26 01.046   -33 01 16.57  823314 .98293  70.5 22.5 33.9 119
2023 01 28 00  15 32 57.440   -33 48 54.01  848272 .98274  69.0 22.7 33.6 118
2023 01 28 01  15 39 36.757   -34 32 24.63  873886 .98255  67.6 22.8 33.3 117
2023 01 28 02  15 45 59.401   -35 12 09.29  900102 .98236  66.3 23.0 32.9 117
2023 01 28 03  15 52 05.844   -35 48 27.63  926866 .98217  65.0 23.1 32.5 116
2023 01 28 04  15 57 56.612   -36 21 37.94  954134 .98198  63.8 23.3 32.2 115
2023 01 28 05  16 03 32.266   -36 51 57.14  981863 .98179  62.7 23.4 31.8 114
2023 01 28 06  16 08 53.391   -37 19 40.80  .00675 .98160  61.7 23.5 31.4 113
2023 01 28 07  16 14 00.588   -37 45 03.15  .00694 .98141  60.7 23.7 31.1 112
2023 01 28 08  16 18 54.458   -38 08 17.16  .00714 .98122  59.7 23.8 30.7 112
2023 01 28 09  16 23 35.604   -38 29 34.65  .00733 .98103  58.9 23?? 30.3 111
2023 01 28 10  16 28 04.615   -38 49 06.33  .00753 .98084  58.0 24?? 30.0 110
2023 01 28 11  16 32 22.072   -39 07 01.88  .00773 .98065  57.3 24?? 29.6 110
2023 01 28 12  16 36 28.535   -39 23 30.07  .00793 .98046  56.5 24?? 29.3 109
2023 01 28 13  16 40 24.549   -39 38 38.83  .00813 .98027  55.8 24?? 29.0 108
2023 01 28 14  16 44 10.636   -39 52 35.33  .00834 .98008  55.1 24?? 28.7 108
2023 01 28 15  16 47 47.295   -40 05 26.02  .00854 .97990  54.5 24?? 28.4 107
2023 01 28 16  16 51 15.006   -40 17 16.74  .00875 .97971  53.9 24?? 28.1 107